Tracking 17636 objects as of 29-April-2016
HD Live streaming from Space Station
objects crossing your sky now

MOLNIYA 1-93


MOLNIYA 1-93 is no longer on orbit
MOLNIYA 1-93 is classified as:


NORAD ID: 28163
Int'l Code: 2004-005A
Perigee: N/A
Apogee: N/A
Inclination: N/A
Period: N/A
Semi major axis: N/A
RCS: N/A
Launch date: February 18, 2004
Source: Commonwealth of Independent States (former USSR) (CIS)
Launch site: PLESETSK MISSILE AND SPACE COMPLEX (PKMTR)
Decay date: 2016-04-16

Military communications.
Your satellite tracking list
Your tracking list is empty





NASA's NSSDC Master Catalog

Two Line Element Set (TLE):
1 28163U 04005A   16107.17649683  .99999999  80343-5  50846-3 0  9999
2 28163  62.8606 306.2093 0183577 253.9848 222.5544 16.31216773 90564
Source of the keplerian elements: AFSPC

N2YO: 565